Time,TemperatureF,DewpointF,PressureIn,WindDirection,WindDirectionDegrees,WindSpeedMPH,WindSpeedGustMPH,Humidity,HourlyPrecipIn,Conditions,Clouds,dailyrainin,SoftwareType,DateUTC
2013-03-30 00:12:00,34.0,32.0,-100.00,NNE,30,5.0,6.0,91,-99.99,,,-99.99,,2013-03-30 05:12:00,
2013-03-30 00:22:00,34.0,32.0,-100.00,NNE,30,5.0,6.0,91,-99.99,,,-99.99,,2013-03-30 05:22:00,
2013-03-30 00:32:00,34.0,32.0,-100.00,NNE,30,5.0,6.0,91,-99.99,,,-99.99,,2013-03-30 05:32:00,
2013-03-30 00:42:00,34.0,32.0,-100.00,NE,50,3.0,5.0,91,-99.99,,,-99.99,,2013-03-30 05:42:00,
2013-03-30 00:51:00,34.0,32.0,-100.00,NE,40,1.0,2.0,91,-99.99,,,-99.99,,2013-03-30 05:51:00,
2013-03-30 01:11:00,34.0,32.0,-100.00,NE,40,1.0,2.0,92,-99.99,,,-99.99,,2013-03-30 06:11:00,
2013-03-30 01:21:00,34.0,32.0,-100.00,North,0,0.0,2.0,92,-99.99,,,-99.99,,2013-03-30 06:21:00,
2013-03-30 01:31:00,34.0,28.0,-100.00,East,90,1.0,2.0,77,-99.99,,,-99.99,,2013-03-30 06:31:00,
2013-03-30 01:41:00,34.0,28.0,-100.00,East,90,1.0,2.0,77,-99.99,,,-99.99,,2013-03-30 06:41:00,
2013-03-30 01:52:00,34.0,27.0,-100.00,ESE,120,2.0,3.0,74,-99.99,,,-99.99,,2013-03-30 06:52:00,
2013-03-30 02:01:00,34.0,26.0,-100.00,ESE,120,3.0,3.0,72,-99.99,,,-99.99,,2013-03-30 07:01:00,
2013-03-30 02:11:00,34.0,26.0,-100.00,ESE,120,3.0,3.0,72,-99.99,,,-99.99,,2013-03-30 07:11:00,
2013-03-30 02:21:00,33.0,26.0,-100.00,SE,140,3.0,5.0,72,-99.99,,,-99.99,,2013-03-30 07:21:00,
2013-03-30 02:31:00,33.0,24.0,-100.00,SE,130,6.0,7.0,68,-99.99,,,-99.99,,2013-03-30 07:31:00,
2013-03-30 02:41:00,33.0,24.0,-100.00,SE,130,6.0,7.0,68,-99.99,,,-99.99,,2013-03-30 07:41:00,
2013-03-30 02:52:00,33.0,25.0,-100.00,SE,140,5.0,6.0,71,-99.99,,,-99.99,,2013-03-30 07:52:00,
2013-03-30 03:01:00,32.0,25.0,-100.00,SE,130,3.0,5.0,74,-99.99,,,-99.99,,2013-03-30 08:01:00,
2013-03-30 03:11:00,32.0,25.0,-100.00,SE,130,3.0,5.0,74,-99.99,,,-99.99,,2013-03-30 08:11:00,
2013-03-30 03:21:00,32.0,24.0,-100.00,ESE,110,5.0,6.0,69,-99.99,,,-99.99,,2013-03-30 08:21:00,
2013-03-30 03:31:00,33.0,22.0,-100.00,SE,140,5.0,6.0,63,-99.99,,,-99.99,,2013-03-30 08:31:00,
2013-03-30 03:42:00,33.0,22.0,-100.00,SE,140,5.0,6.0,63,-99.99,,,-99.99,,2013-03-30 08:42:00,
2013-03-30 03:52:00,31.0,23.0,-100.00,SE,130,3.0,5.0,72,-99.99,,,-99.99,,2013-03-30 08:52:00,
2013-03-30 04:01:00,31.0,22.0,-100.00,ESE,110,3.0,5.0,69,-99.99,,,-99.99,,2013-03-30 09:01:00,
2013-03-30 04:11:00,31.0,22.0,-100.00,ESE,110,3.0,5.0,69,-99.99,,,-99.99,,2013-03-30 09:11:00,
2013-03-30 04:32:00,31.0,22.0,-100.00,ESE,110,5.0,6.0,67,-99.99,,,-99.99,,2013-03-30 09:32:00,
2013-03-30 04:42:00,31.0,20.0,-100.00,ESE,110,6.0,7.0,63,-99.99,,,-99.99,,2013-03-30 09:42:00,
2013-03-30 04:52:00,31.0,20.0,-100.00,ESE,110,6.0,7.0,63,-99.99,,,-99.99,,2013-03-30 09:52:00,
2013-03-30 05:02:00,31.0,20.0,-100.00,ESE,110,6.0,7.0,63,-99.99,,,-99.99,,2013-03-30 10:02:00,
2013-03-30 05:12:00,31.0,20.0,-100.00,East,100,6.0,7.0,63,-99.99,,,-99.99,,2013-03-30 10:12:00,
2013-03-30 05:22:00,33.0,18.0,-100.00,East,100,6.0,7.0,53,-99.99,,,-99.99,,2013-03-30 10:22:00,
2013-03-30 05:32:00,33.0,18.0,-100.00,East,100,6.0,7.0,53,-99.99,,,-99.99,,2013-03-30 10:32:00,
2013-03-30 05:42:00,36.0,18.0,-100.00,East,100,7.0,8.0,47,-99.99,,,-99.99,,2013-03-30 10:42:00,
2013-03-30 05:52:00,36.0,17.0,-100.00,East,90,6.0,6.0,45,-99.99,,,-99.99,,2013-03-30 10:52:00,
2013-03-30 06:02:00,38.0,16.0,-100.00,East,90,6.0,7.0,40,-99.99,,,-99.99,,2013-03-30 11:02:00,
2013-03-30 06:11:00,38.0,16.0,-100.00,East,90,6.0,7.0,40,-99.99,,,-99.99,,2013-03-30 11:11:00,
2013-03-30 06:21:00,31.0,20.0,-100.00,East,80,3.0,5.0,63,-99.99,,,-99.99,,2013-03-30 11:21:00,
2013-03-30 06:32:00,31.0,20.0,-100.00,SE,130,3.0,6.0,61,-99.99,,,-99.99,,2013-03-30 11:32:00,
2013-03-30 06:41:00,31.0,20.0,-100.00,SE,130,3.0,6.0,61,-99.99,,,-99.99,,2013-03-30 11:41:00,
2013-03-30 06:52:00,31.0,21.0,-100.00,SE,130,2.0,3.0,65,-99.99,,,-99.99,,2013-03-30 11:52:00,
2013-03-30 07:02:00,30.0,21.0,-100.00,ESE,120,3.0,5.0,67,-99.99,,,-99.99,,2013-03-30 12:02:00,
2013-03-30 07:32:00,33.0,17.0,-100.00,ESE,110,8.0,9.0,50,-99.99,,,-99.99,,2013-03-30 12:32:00,
2013-03-30 07:41:00,33.0,17.0,-100.00,ESE,110,8.0,9.0,50,-99.99,,,-99.99,,2013-03-30 12:41:00,
2013-03-30 07:52:00,31.0,20.0,-100.00,ESE,120,6.0,7.0,63,-99.99,,,-99.99,,2013-03-30 12:52:00,
2013-03-30 08:01:00,34.0,19.0,-100.00,ESE,120,7.0,9.0,53,-99.99,,,-99.99,,2013-03-30 13:01:00,
2013-03-30 08:11:00,34.0,19.0,-100.00,ESE,120,7.0,9.0,53,-99.99,,,-99.99,,2013-03-30 13:11:00,
2013-03-30 08:21:00,35.0,18.0,-100.00,ESE,120,8.0,9.0,51,-99.99,,,-99.99,,2013-03-30 13:21:00,
2013-03-30 08:31:00,36.0,18.0,-100.00,ESE,120,7.0,9.0,48,-99.99,,,-99.99,,2013-03-30 13:31:00,
2013-03-30 08:41:00,36.0,18.0,-100.00,ESE,120,7.0,9.0,48,-99.99,,,-99.99,,2013-03-30 13:41:00,
2013-03-30 08:52:00,37.0,18.0,-100.00,SE,130,8.0,10.0,44,-99.99,,,-99.99,,2013-03-30 13:52:00,
2013-03-30 09:01:00,39.0,17.0,-100.00,SE,130,9.0,11.0,41,-99.99,,,-99.99,,2013-03-30 14:01:00,
2013-03-30 09:32:00,41.0,19.0,-100.00,SE,130,8.0,10.0,39,-99.99,,,-99.99,,2013-03-30 14:32:00,
2013-03-30 09:41:00,41.0,19.0,-100.00,SE,130,8.0,10.0,39,-99.99,,,-99.99,,2013-03-30 14:41:00,
2013-03-30 09:52:00,43.0,20.0,-100.00,SE,140,7.0,11.0,38,-99.99,,,-99.99,,2013-03-30 14:52:00,
2013-03-30 10:01:00,43.0,20.0,-100.00,SE,140,7.0,11.0,38,-99.99,,,-99.99,,2013-03-30 15:01:00,
2013-03-30 10:11:00,44.0,18.0,-100.00,SSE,150,10.0,16.0,35,-99.99,,,-99.99,,2013-03-30 15:11:00,
2013-03-30 10:21:00,45.0,19.0,-100.00,SSE,160,14.0,18.0,35,-99.99,,,-99.99,,2013-03-30 15:21:00,
2013-03-30 10:33:00,45.0,19.0,-100.00,SSE,160,14.0,18.0,35,-99.99,,,-99.99,,2013-03-30 15:33:00,
2013-03-30 10:42:00,46.0,19.0,-100.00,SSE,160,15.0,22.0,33,-99.99,,,-99.99,,2013-03-30 15:42:00,
2013-03-30 10:52:00,46.0,19.0,-100.00,SSE,160,15.0,22.0,33,-99.99,,,-99.99,,2013-03-30 15:52:00,
2013-03-30 11:02:00,46.0,19.0,-100.00,SSE,160,15.0,22.0,33,-99.99,,,-99.99,,2013-03-30 16:02:00,
2013-03-30 11:12:00,47.0,20.0,-100.00,SE,140,14.0,20.0,33,-99.99,,,-99.99,,2013-03-30 16:12:00,
2013-03-30 11:22:00,48.0,22.0,-100.00,SSE,160,13.0,16.0,35,-99.99,,,-99.99,,2013-03-30 16:22:00,
2013-03-30 11:32:00,48.0,22.0,-100.00,SSE,160,13.0,16.0,35,-99.99,,,-99.99,,2013-03-30 16:32:00,
2013-03-30 11:42:00,49.0,25.0,-100.00,SSE,150,10.0,16.0,38,-99.99,,,-99.99,,2013-03-30 16:42:00,
2013-03-30 11:52:00,49.0,26.0,-100.00,South,180,14.0,18.0,41,-99.99,,,-99.99,,2013-03-30 16:52:00,
2013-03-30 12:01:00,49.0,29.0,-100.00,South,180,15.0,21.0,44,-99.99,,,-99.99,,2013-03-30 17:01:00,
2013-03-30 12:22:00,50.0,29.0,-100.00,South,190,11.0,16.0,45,-99.99,,,-99.99,,2013-03-30 17:22:00,
2013-03-30 12:31:00,50.0,30.0,-100.00,South,180,9.0,11.0,45,-99.99,,,-99.99,,2013-03-30 17:31:00,
2013-03-30 12:42:00,50.0,30.0,-100.00,South,180,9.0,11.0,45,-99.99,,,-99.99,,2013-03-30 17:42:00,
2013-03-30 12:52:00,51.0,30.0,-100.00,South,190,11.0,15.0,44,-99.99,,,-99.99,,2013-03-30 17:52:00,
2013-03-30 13:01:00,51.0,30.0,-100.00,South,190,11.0,15.0,44,-99.99,,,-99.99,,2013-03-30 18:01:00,
2013-03-30 13:11:00,51.0,29.0,-100.00,South,190,11.0,17.0,42,-99.99,,,-99.99,,2013-03-30 18:11:00,
2013-03-30 13:21:00,51.0,30.0,-100.00,South,180,8.0,11.0,44,-99.99,,,-99.99,,2013-03-30 18:21:00,
2013-03-30 13:31:00,51.0,30.0,-100.00,South,180,8.0,11.0,44,-99.99,,,-99.99,,2013-03-30 18:31:00,
2013-03-30 13:41:00,51.0,30.0,-100.00,South,180,8.0,11.0,44,-99.99,,,-99.99,,2013-03-30 18:41:00,
2013-03-30 13:52:00,52.0,29.0,-100.00,South,180,14.0,17.0,40,-99.99,,,-99.99,,2013-03-30 18:52:00,
2013-03-30 14:01:00,52.0,29.0,-100.00,South,180,14.0,17.0,40,-99.99,,,-99.99,,2013-03-30 19:01:00,
2013-03-30 14:11:00,53.0,29.0,-100.00,South,190,11.0,16.0,39,-99.99,,,-99.99,,2013-03-30 19:11:00,
2013-03-30 14:21:00,53.0,30.0,-100.00,South,180,10.0,16.0,40,-99.99,,,-99.99,,2013-03-30 19:21:00,
2013-03-30 14:31:00,53.0,30.0,-100.00,South,180,10.0,16.0,40,-99.99,,,-99.99,,2013-03-30 19:31:00,
2013-03-30 14:41:00,54.0,30.0,-100.00,SSE,160,10.0,15.0,39,-99.99,,,-99.99,,2013-03-30 19:41:00,
2013-03-30 14:52:00,54.0,29.0,-100.00,South,180,13.0,17.0,38,-99.99,,,-99.99,,2013-03-30 19:52:00,
2013-03-30 15:01:00,54.0,30.0,-100.00,South,180,9.0,15.0,40,-99.99,,,-99.99,,2013-03-30 20:01:00,
2013-03-30 15:11:00,54.0,30.0,-100.00,South,180,9.0,15.0,40,-99.99,,,-99.99,,2013-03-30 20:11:00,
2013-03-30 15:21:00,54.0,30.0,-100.00,South,180,14.0,18.0,38,-99.99,,,-99.99,,2013-03-30 20:21:00,
2013-03-30 15:32:00,55.0,30.0,-100.00,South,170,11.0,20.0,38,-99.99,,,-99.99,,2013-03-30 20:32:00,
2013-03-30 15:42:00,55.0,30.0,-100.00,South,170,11.0,20.0,38,-99.99,,,-99.99,,2013-03-30 20:42:00,
2013-03-30 15:52:00,55.0,31.0,-100.00,SSE,160,10.0,16.0,38,-99.99,,,-99.99,,2013-03-30 20:52:00,
2013-03-30 16:01:00,55.0,31.0,-100.00,SSE,160,10.0,16.0,38,-99.99,,,-99.99,,2013-03-30 21:01:00,
2013-03-30 16:11:00,55.0,30.0,-100.00,South,170,14.0,21.0,37,-99.99,,,-99.99,,2013-03-30 21:11:00,
2013-03-30 16:21:00,56.0,31.0,-100.00,South,170,13.0,18.0,38,-99.99,,,-99.99,,2013-03-30 21:21:00,
2013-03-30 16:32:00,55.0,30.0,-100.00,South,180,17.0,21.0,37,-99.99,,,-99.99,,2013-03-30 21:32:00,
2013-03-30 16:42:00,55.0,30.0,-100.00,South,180,17.0,21.0,37,-99.99,,,-99.99,,2013-03-30 21:42:00,
2013-03-30 16:52:00,55.0,29.0,-100.00,South,180,17.0,22.0,36,-99.99,,,-99.99,,2013-03-30 21:52:00,
2013-03-30 17:02:00,55.0,29.0,-100.00,South,180,17.0,22.0,36,-99.99,,,-99.99,,2013-03-30 22:02:00,
2013-03-30 17:12:00,56.0,30.0,-100.00,SSE,160,15.0,23.0,36,-99.99,,,-99.99,,2013-03-30 22:12:00,
2013-03-30 17:23:00,56.0,30.0,-100.00,South,180,16.0,21.0,37,-99.99,,,-99.99,,2013-03-30 22:23:00,
2013-03-30 17:32:00,55.0,31.0,-100.00,South,180,13.0,16.0,40,-99.99,,,-99.99,,2013-03-30 22:32:00,
2013-03-30 17:42:00,55.0,31.0,-100.00,South,180,13.0,16.0,40,-99.99,,,-99.99,,2013-03-30 22:42:00,
2013-03-30 17:52:00,55.0,31.0,-100.00,South,180,16.0,22.0,39,-99.99,,,-99.99,,2013-03-30 22:52:00,
2013-03-30 18:02:00,55.0,31.0,-100.00,South,170,16.0,21.0,39,-99.99,,,-99.99,,2013-03-30 23:02:00,
2013-03-30 18:12:00,55.0,31.0,-100.00,South,170,16.0,21.0,39,-99.99,,,-99.99,,2013-03-30 23:12:00,
2013-03-30 18:22:00,55.0,31.0,-100.00,South,180,18.0,22.0,40,-99.99,,,-99.99,,2013-03-30 23:22:00,
2013-03-30 18:31:00,55.0,32.0,-100.00,South,170,17.0,21.0,40,-99.99,,,-99.99,,2013-03-30 23:31:00,
2013-03-30 18:41:00,55.0,32.0,-100.00,South,170,17.0,21.0,40,-99.99,,,-99.99,,2013-03-30 23:41:00,
2013-03-30 18:52:00,54.0,32.0,-100.00,South,170,14.0,18.0,42,-99.99,,,-99.99,,2013-03-30 23:52:00,
2013-03-30 19:01:00,54.0,32.0,-100.00,South,170,14.0,18.0,42,-99.99,,,-99.99,,2013-03-31 00:01:00,
2013-03-30 19:22:00,54.0,32.0,-100.00,South,170,11.0,15.0,43,-99.99,,,-99.99,,2013-03-31 00:22:00,
2013-03-30 19:41:00,54.0,32.0,-100.00,South,170,10.0,14.0,43,-99.99,,,-99.99,,2013-03-31 00:41:00,
2013-03-30 19:52:00,53.0,32.0,-100.00,South,180,10.0,15.0,43,-99.99,,,-99.99,,2013-03-31 00:52:00,
2013-03-30 20:01:00,53.0,32.0,-100.00,South,180,10.0,15.0,43,-99.99,,,-99.99,,2013-03-31 01:01:00,
2013-03-30 20:11:00,53.0,32.0,-100.00,South,180,10.0,14.0,43,-99.99,,,-99.99,,2013-03-31 01:11:00,
2013-03-30 20:21:00,53.0,32.0,-100.00,South,180,10.0,13.0,44,-99.99,,,-99.99,,2013-03-31 01:21:00,
2013-03-30 20:31:00,53.0,32.0,-100.00,South,180,9.0,13.0,45,-99.99,,,-99.99,,2013-03-31 01:31:00,
2013-03-30 20:41:00,53.0,32.0,-100.00,South,180,9.0,13.0,45,-99.99,,,-99.99,,2013-03-31 01:41:00,
2013-03-30 20:52:00,52.0,33.0,-100.00,South,180,11.0,14.0,48,-99.99,,,-99.99,,2013-03-31 01:52:00,
2013-03-30 21:21:00,52.0,33.0,-100.00,South,190,10.0,13.0,49,-99.99,,,-99.99,,2013-03-31 02:21:00,
2013-03-30 21:31:00,52.0,34.0,-100.00,South,190,11.0,13.0,50,-99.99,,,-99.99,,2013-03-31 02:31:00,
2013-03-30 21:42:00,52.0,34.0,-100.00,South,190,11.0,13.0,50,-99.99,,,-99.99,,2013-03-31 02:42:00,
2013-03-30 21:51:00,51.0,35.0,-100.00,South,190,14.0,16.0,52,-99.99,,,-99.99,,2013-03-31 02:51:00,
2013-03-30 22:01:00,51.0,35.0,-100.00,South,190,13.0,16.0,52,-99.99,,,-99.99,,2013-03-31 03:01:00,
2013-03-30 22:21:00,51.0,35.0,-100.00,South,180,10.0,11.0,53,-99.99,,,-99.99,,2013-03-31 03:21:00,
2013-03-30 22:32:00,51.0,35.0,-100.00,South,170,10.0,14.0,54,-99.99,,,-99.99,,2013-03-31 03:32:00,
2013-03-30 22:42:00,51.0,35.0,-100.00,South,170,10.0,14.0,54,-99.99,,,-99.99,,2013-03-31 03:42:00,
2013-03-30 22:53:00,51.0,35.0,-100.00,South,180,10.0,13.0,54,-99.99,,,-99.99,,2013-03-31 03:53:00,
2013-03-30 23:02:00,51.0,-99.9,-100.00,South,180,9.0,11.0,55,-99.99,,,-99.99,,2013-03-31 04:02:00,
2013-03-30 23:12:00,51.0,35.0,-100.00,South,180,9.0,11.0,55,-99.99,,,-99.99,,2013-03-31 04:12:00,
2013-03-30 23:22:00,51.0,35.0,-100.00,South,180,9.0,11.0,55,-99.99,,,-99.99,,2013-03-31 04:22:00,
2013-03-30 23:32:00,50.0,35.0,-100.00,South,180,8.0,10.0,56,-99.99,,,-99.99,,2013-03-31 04:32:00,
2013-03-30 23:42:00,50.0,35.0,-100.00,South,180,8.0,10.0,56,-99.99,,,-99.99,,2013-03-31 04:42:00,
2013-03-30 23:52:00,50.0,36.0,-100.00,South,180,9.0,13.0,57,-99.99,,,-99.99,,2013-03-31 04:52:00,